Blog

Uncategorized

2002 Ratings: D1 Boys State

Adjustment: +9

GradeNameTimeTeamRating
12Chris Catton15:18.8Grand Blanc210.7
11Dustin Voss15:21.8Saline209.7
11Frank Tinney15:24.3Ann Arbor Huron208.9
11Andrew Manning15:36.4Traverse City Central204.9
11Kevin Gienapp15:37.0Brighton204.7
12Matt Wish15:45.9Rockford201.7
12Mike Hanlon15:46.7Ann Arbor Huron201.4
9Mark Moore15:47.5Novi201.2
10Neil Atzinger15:47.6Saline201.1
11Chris Welch15:48.4White Lake Lakeland200.9
11Donald Richmond15:48.7Oxford200.8
11Tim Copacia15:49.9Utica Eisenhower200.4
10Tim Kenny15:50.0TC West (Traverse City)200.3
12Chris Mehay15:51.7New Baltimore Anchor Bay199.8
11Adam Craig15:52.2White Lake Lakeland199.6
9John Black15:52.7Brother Rice199.4
10Chris Hammer15:54.3Troy Athens198.9
11Alex Wood15:55.0TC West (Traverse City)198.7
Brian Gilchrist15:55.5Novi198.5
11Mark Sitko15:55.6Clarkston198.5
11Matt Plaska15:56.5Zeeland (split to East/West)198.2
11Eric Graf15:57.5Rockford197.8
12BJ Meyers15:58.3Rockford197.6
11James Erickson15:59.6Belleville197.1
Seth Thibodean15:59.8Highland-Milford197.1
10Tim Kaijala16:00.4Muskegon Mona Shores196.9
11Matt Gillespie16:01.3Livonia Stevenson196.6
12Justin Hajduk16:03.8Salem195.7
10Kyle Harris16:05.3Highland-Milford195.2
11Alex Fritz16:06.3Temperance Bedford194.9
Sean O’Halloran16:06.8Livonia Stevenson194.7
10Chad Murray16:07.6Highland-Milford194.5
11Cam Ross16:07.8Traverse City Central194.4
10Chris Scott16:09.2TC West (Traverse City)193.9
11Brian Doot16:09.4Detroit Catholic Central193.9
11Jared Elmore16:12.3Clarkston192.9
10Dana Pitcock16:12.3Highland-Milford192.9
10David Lucas16:12.4Detroit Catholic Central192.9
12Derek Scott16:13.3GR_Northview192.6
Michael Andersen16:13.6Highland-Milford192.5
10David Brown16:13.8Port Huron Northern192.4
11Daniel Horgan16:14.9Detroit Catholic Central192.0
Lindsey LaLonde16:17.0Saginaw Heritage191.3
12Geoff Guthrie16:17.5Rockford191.2
11Abdullah Saleh16:17.9Dearborn Fordson191.0
11Eric Huffman16:18.0Swartz Creek191.0
11Tim Kava16:18.3Novi190.9
11Pat Miller16:18.5Highland-Milford190.8
10Kyle Mena16:18.6Portage Northern190.8
11Alex Grobbel16:20.1Utica Eisenhower190.3
11Kevin Coch16:20.3East Kentwood190.2
Bryan Tharp16:21.0Holland West Ottawa190.0
10Eric Joseph16:21.2Novi189.9
11Chad Anastasoff16:21.3Temperance Bedford189.9
12Adam Hostetler16:22.4Grand Blanc189.5
9Jimmy Partridge16:22.9Sterling Heights189.4
Kevin Mason16:23.0Detroit Catholic Central189.3
12Andrew Miller16:23.4Utica189.2
11Jeff Draggich16:23.6Sterling Heights189.1
10Ryan McCarl16:24.4Muskegon Mona Shores188.9
11Jason Young16:25.0Utica Eisenhower188.7
Trevor Step16:25.6Detroit Catholic Central188.5
12Chris Cavazos16:26.3Woodhaven-Brownstown188.2
10Matt Crampton16:26.8Utica Eisenhower188.1
10Thomas Cowan16:27.0Troy188.0
10Adam Koepfer16:27.8Temperance Bedford187.7
Nate Penny16:28.1Zeeland (split to East/West)187.6
Adam Aljahmi16:29.0Dearborn Fordson187.3
9Steve Czarnecki16:29.9Rochester Adams187.0
10Maxwell Working16:30.7Detroit Catholic Central186.8
10Clark Richter16:31.0Rockford186.7
10Tad Hulst16:31.0Zeeland (split to East/West)186.7
11Zach Ryan16:32.3Saline186.2
10Colin Orr16:34.6West Bloomfield185.5
Mark Jones16:34.7Saginaw Heritage185.4
11David Morgan16:35.2FHN GR_Forest Hills Northern185.3
10Dan DeRusha16:35.2Highland-Milford185.3
Marc Roualet16:35.8Brother Rice185.1
12Bobby Brouwer16:36.3FHC GR_Forest Hills Central184.9
10Richard Kettles16:36.3Grand Ledge184.9
11Stephen Cheek16:36.4Canton184.9
9Spencer Ornes16:37.0Novi184.7
10Jeff Brooks16:38.0Flushing184.3
9Marcel Franklin16:38.7Lansing Eastern184.1
12Atul Gupta16:39.6Ann Arbor Huron183.8
Nick Zendler16:39.6Flint Carman-Ainsworth183.8
10Hadi Harp16:40.4Dearborn Fordson183.5
11Grant Griffin16:40.7Grand Blanc183.4
12Matt Tidman16:41.0Pinckney183.3
Adam Darany16:41.2Detroit Catholic Central183.3
10Ryan Cooper16:41.8Portage Northern183.1
11Jim Kutches16:41.9Muskegon Mona Shores183.0
12Chris Jordan16:42.4Detroit U-D Jesuit182.9
10Justin Switzer16:42.4Waterford Kettering182.9
10Dominic Merica16:43.5Traverse City Central182.5
10Tony Araiz16:44.5Temperance Bedford182.2
12Jon Western16:44.8Canton182.1
9John Hall16:45.0TC West (Traverse City)182.0
10David Hariston16:45.5Grand Ledge181.8
11Andrew Stewart16:46.5Troy181.5
10Mike Bair16:46.6Brother Rice181.5
John Malosh16:47.3Monroe181.2
12Todd Smith16:47.6Rockford181.1
11Matt Chumbley16:47.8Rochester181.1
11Christopher Haag16:47.9Warren DeLaSalle181.0
9Harrison Beeby16:48.4Traverse City Central180.9
12Aaron Lanning16:48.7Canton180.8
10Jason Hannawa16:48.8Brother Rice180.7
10Amol Huprikar16:48.9Novi180.7
10Steven Leonard16:48.9White Lake Lakeland180.7
Aaron Kenemer16:49.4Zeeland (split to East/West)180.5
12Randy Bearden16:50.2Salem180.3
11Sean Burgoon16:50.2Temperance Bedford180.3
12Steve Gladieux16:50.7TC West (Traverse City)180.1
10Mitch Weiner16:50.8White Lake Lakeland180.1
10Luke Chrusciel16:50.9Grandville180.0
Jeff Mataya16:51.4North Farmington179.9
9Alvin Moore16:51.5Troy Athens179.8
10Adam Daoud16:52.2Ann Arbor Huron179.6
10Dan Pinter16:52.9Saline179.4
12Jon Steinhoff16:53.4Grand Blanc179.2
11David Snare16:53.7Temperance Bedford179.1
10Ryan Gregory16:53.9Brother Rice179.0
10Shane Knoll16:54.1Warren Mott179.0
11Zachary Blough-Orr16:54.6Kalamazoo Central178.8
12Kevin Dorn16:55.2Rockford178.6
10Parker Tiffany16:55.3Traverse City Central178.6
Doug Novack16:55.5Livonia Stevenson178.5
11Jason Arini16:55.8Sterling Heights178.4
12Eric Woolworth16:56.0Jackson178.3
10Austin Riker16:56.9Ann Arbor Huron178.0
Geoff Brigham16:57.9Lansing Eastern177.7
11Nikhil Kawlra16:58.2Troy177.6
9Mike Craze16:58.5Sterling Heights177.5
10Carter Bishop16:59.1Saline177.3
12Johnny McDonald16:59.1TC West (Traverse City)177.3
Matt McGraw16:59.2Lansing Eastern177.3
Sam Christian16:59.7Lansing Eastern177.1
11Mike Force17:00.3Owosso176.9
12Evan Wimberly17:01.1Ann Arbor Huron176.6
Kevin Patra17:01.8Redford Union176.4
11Jacob Laurent17:02.1Kalamazoo Central176.3
12Tom Jones17:02.7Holt176.1
Jason Day17:03.1Rochester176.0
James Munk17:03.5Lansing Eastern175.8
12Francis Reno17:03.5Temperance Bedford175.8
12Matthew Lutch17:03.7Roseville175.8
10Kassem Hammoud17:04.3Dearborn Fordson175.6
10Scott Brunning17:04.4Troy Athens175.5
10Curtis Vollmar17:05.4Grand Blanc175.2
12Andy Strasburg17:05.6Saline175.1
Matt Merian17:06.5Rochester174.8
11Andrew Visger17:07.3Grosse Pointe South174.6
10Tom Clippard17:07.4Troy Athens174.5
11Sam Klemet17:07.6Brother Rice174.5
11Chad Rogers17:08.0Holt174.3
11Jay Meyers17:08.2Muskegon Mona Shores174.3
11Christopher Vraniak17:08.9Salem174.0
11Timothy Edwards17:09.9Warren Mott173.7
12Jon Vanderberg17:10.2Muskegon Mona Shores173.6
10Richard Byler17:10.8Jackson173.4
Jon Paklaian17:10.9Troy173.4
11Adam Warner17:11.3Salem173.2
10Dan Kenny17:11.4TC West (Traverse City)173.2
11Kevin Kane17:11.7Livonia Churchill173.1
9Jake Schaner17:12.6Muskegon Mona Shores172.8
12Brandon Emperor17:13.5FHC GR_Forest Hills Central172.5
10Ryan Harper17:14.3Traverse City Central172.2
12Marcus Evans17:14.9Kalamazoo Central172.0
11Bryan Mullins17:15.0Rochester172.0
10Sam Watson17:15.4Rochester171.9
Ryan Danescu17:16.6Royal Oak Kimball (closed)171.5
12Bilal Ghalib17:17.2Ann Arbor Huron171.3
11Levi Yoder17:19.9GR_Union170.4
11Chris Lieblang17:21.0Sterling Heights170.0
Ali Ajamy17:21.2Dearborn Fordson169.9
11Kyle Scott17:22.0FHC GR_Forest Hills Central169.7
10Tom Szczesny17:22.5Detroit U-D Jesuit169.5
9Ryan Grau17:25.4Kalamazoo Central168.5
10Kenny White17:25.6Oxford168.5
10Matt Dull17:26.2FHC GR_Forest Hills Central168.3
Mike Pitcher17:27.8Novi167.7
12Erik Ness17:28.3Salem167.6
10Jason Sosnowski17:28.3White Lake Lakeland167.6
10Stefan Cross17:29.1Grosse Pointe North167.3
9Jacob Wernet17:29.3Grosse Pointe South167.2
11Steve Cullen17:30.7Fraser166.8
10Jon Maten17:32.1Detroit U-D Jesuit166.3
11David Walline17:32.2Saline166.3
11Eric Eustice17:32.5Detroit U-D Jesuit166.2
10Phil Shaheen17:32.5Troy Athens166.2
11Justin Spliedt17:33.7FHC GR_Forest Hills Central165.8
9Kirk Leonard17:36.0Detroit U-D Jesuit165.0
10Khalil Elgarmi17:36.7Dearborn Fordson164.8
10Andrew Gabris17:38.7Muskegon Mona Shores164.1
11Matthew Hays17:39.0Livonia Stevenson164.0
9Josh Lisiecki17:40.1Detroit U-D Jesuit163.6
11Anthony McManus17:41.1Traverse City Central163.3
9Jon Davis17:42.1Utica Eisenhower163.0
11Benjamin Schoener17:42.7Grand Blanc162.8
Brad Craig17:44.0White Lake Lakeland162.3
10Bryan Mackenzie17:46.6Grosse Pointe South161.5
9Tyler Evans17:47.8Kalamazoo Central161.1
12Mike Horgan17:48.3Salem160.9
10David Watson17:49.0Grosse Pointe North160.7
Matt Hoelzel17:50.8Livonia Stevenson160.1
Rob Matouk17:53.2Grosse Pointe North159.3
11Jim Grau17:56.2Detroit U-D Jesuit158.3
10Dominic Fano17:57.8Sterling Heights157.7
9Dan Welch17:58.2White Lake Lakeland157.6
Zaid Algahmi18:01.8Dearborn Fordson156.4
11James Leddy18:03.5Salem155.8
12Mlen-Too Wesley18:03.8Kalamazoo Central155.7
11Collin Hall18:05.8Livonia Stevenson155.1
Eric Backman18:06.2Grosse Pointe South154.9
Sam Filcik18:06.4Zeeland (split to East/West)154.9
Nick Plaska18:06.8Zeeland (split to East/West)154.7
12Andy Neuman18:07.0FHC GR_Forest Hills Central154.7
12Nate Brunner18:07.6FHC GR_Forest Hills Central154.5
10John Rolecki18:09.7Grand Blanc153.8
11Josh Bogus18:10.5Sterling Heights153.5
12Brad Gimbutis18:10.9Utica Eisenhower153.4
9Adam Dziuba18:13.1Grosse Pointe South152.6
11Jim Marcicki18:13.3Livonia Stevenson152.6
10Brad Linden18:20.9Rochester150.0
10Dave Secord18:24.9Grosse Pointe North148.7
Tom Bratton18:28.3Zeeland (split to East/West)147.6
9Steve Breisach18:29.1Kalamazoo Central147.3
Jeff Chen18:29.1Troy147.3
Andy Kapordelis18:35.4Grosse Pointe North145.2
Justin Tonti18:39.2Rochester143.9
Eric Barton18:39.3Grosse Pointe North143.9
Alex Kapordelis18:41.7Grosse Pointe North143.1
Nick Ferri18:42.2Troy Athens142.9
Mike Luginbill18:53.7Troy139.1
Anand Navarasala19:04.1Troy135.6
Matt Grabow19:09.1Troy Athens134.0
12Ross Martin19:16.8Utica Eisenhower131.4
Sean O’Donnell-Daudli19:20.0Grosse Pointe South130.3
Chris Kennedy19:21.5Lansing Eastern129.8
Carl Starkey19:34.4Lansing Eastern125.5
William Chu19:48.8Grosse Pointe South120.7
Uncategorized

2001 Ratings: D2 Boys State

Adjustment: +3

GradeNameTimeTeamRating
12Tim Ross15:03.6Caledonia217.8
12Andrew Bauer15:41.1Bloomfield Hills Lahser (merged with Andover 2015)205.3
11Adam Ludwig15:54.6St. Joseph200.8
12Scott Kallgren15:58.5Trenton199.5
12Tyler Zwagerman16:00.2Holland Christian198.9
12Lance Betts16:06.3Big Rapids196.9
12Tim O’Hara16:06.4Big Rapids196.9
12Ben Salvette16:10.3Cranbrook Kingswood (Bloomfield Hills )195.6
12Jacob Baron16:10.5Monroe Jefferson195.5
10Luke Walker16:11.3Flint Powers Catholic195.2
12Dennis Rathke16:13.7East Lansing194.4
11Jim Pancoast16:15.1Stevensville Lakeshore194.0
12Matt Casillas16:15.5East Grand Rapids193.8
10Curtis Christensen16:15.8Flint Kearsley193.7
12James Jones16:18.4Fremont192.9
12Josh Huyser-Honig16:20.6GR_Christian192.1
11Timothy Kelsh16:21.3Remus Chippewa Hills191.9
11Jesse Gould16:22.5Flint Powers Catholic191.5
12Sean Derby16:22.6Cadillac191.5
12Matt Sackrider16:22.7BC Harper Creek191.4
10Nick Lewis16:23.1Gaylord191.3
11Robby Young16:23.1Wayland Union191.3
9Riley Klingel16:24.4Fremont190.9
11Sam Shewan16:25.2Big Rapids190.6
11Jeff Byrne16:26.6Bay City John Glenn190.1
12Justin Kessler16:27.1Ionia190.0
12Jeff Riggleman16:27.6Tecumseh189.8
11Derek Scott16:28.6GR_Northview189.5
10Nathan Straathof16:29.0Fremont189.3
12Travis Williams16:29.5Lake Odessa Lakewood189.2
11Christopher Burke16:31.3Dexter188.6
11Lawrence Unk16:33.8St. Clair187.7
11David Fedele16:34.3Chelsea187.6
10Sean Beckwith16:34.8Corunna187.4
10AJ McConnell16:35.6Sparta187.1
12Nate VandeMark16:36.0Big Rapids187.0
12Kyle Pennell16:36.0Flint Powers Catholic187.0
11Justin Kelly16:36.7Haslett186.8
9Riak Mabil16:37.3Charlotte186.6
10Donald Richmond16:37.9Oxford186.4
11Brian Coats16:38.9Farmington Hills Harrison (Closed June ’19)186.0
10Daniel Meyer16:40.2Dexter185.6
11Alex Schmidtendorff16:40.8Three Rivers185.4
12Chris VanWashenova16:42.4Monroe Jefferson184.9
11Jon Hodge16:42.5Grosse Ile184.8
11Kevin Mills16:42.6Sturgis184.8
10Mark Ellis16:43.4St. Clair184.5
12Josh Hubbard16:44.0Linden184.3
9Bruce Kaczmarek16:44.3Bloomfield Hills Lahser (merged with Andover 2015)184.2
12Adam Rensel16:44.7Petoskey184.1
12Adam Hoogewind16:45.6Fruitport183.8
10Brian Murphy16:46.0Corunna183.7
12Jason Neiman16:46.6St. Clair183.5
10Eric Syverson16:47.1East Grand Rapids183.3
11Mark Vandermeer16:47.6Wyoming Park183.1
11Nick Fisher16:48.9East Grand Rapids182.7
12Corey Reinke16:49.1Big Rapids182.6
11Mike Frisch16:50.4Auburn Hills Avondale182.2
12Jesse Arnold16:50.6St. Clair182.1
10Jared Kelsh16:51.3Remus Chippewa Hills181.9
12Charles Luchies16:52.5Fremont181.5
12Josh Ulberg16:52.9Cedar Springs181.4
11Timothy Brog16:53.8Middleville Thornapple-Kellogg181.1
11Steve Miller16:54.2Cranbrook Kingswood (Bloomfield Hills )180.9
12Mike Fuller16:54.3Ionia180.9
11Jake Williams16:55.8Eaton Rapids180.4
10Andrew Hobey16:56.8East Lansing180.1
11Jonathon Dalton16:57.0Haslett180.0
11Greg Hawver16:58.7Coldwater179.4
11Chris Fecek16:58.9Pontiac Notre Dame Prep179.4
12Phillip Baranowski16:59.1Marshall179.3
11Mike Walker16:59.9Fenton179.0
10Peter Clemo17:00.1GR_Christian179.0
10David Vandenberge17:00.2GR_Christian178.9
11Justyn Yager17:00.5Lake Odessa Lakewood178.8
12Sam Hyde17:00.9Cranbrook Kingswood (Bloomfield Hills )178.7
12Mitch Graham17:01.3Charlotte178.6
11Brian Wilk17:01.6Fremont178.5
11Daniel Morris17:02.1Lake Odessa Lakewood178.3
11Ben Usher17:02.4Fowlerville178.2
11Aaron Anderson17:02.7Monroe Jefferson178.1
10Brendan Godvin17:02.7Orchard Lake St. Mary’s178.1
12David Stuart17:04.0Lake Odessa Lakewood177.7
12Derek Meiring17:04.5Carleton Airport177.5
12Nathan Fujioka17:04.6Madison Heights Lamphere177.5
12Ian Faber17:05.0Corunna177.3
12Nick Touran17:05.4Petoskey177.2
12Matthew Cuttitta17:05.8Flint Powers Catholic177.1
10Adam Painter17:05.8Alma177.1
10Abraham Mach17:06.1East Lansing177.0
12Jonathon Howlett17:06.7Bloomfield Hills Lahser (merged with Andover 2015)176.8
10Ray Rollet17:06.7Carleton Airport176.8
10Jon Hans17:07.2Dearborn Heights Crestwood176.6
12Jonathan Zmikly17:09.0Oxford176.0
10Christopher Olds17:09.1Gaylord176.0
12Christopher Naida17:10.2Dearborn Divine Child175.6
10Emory Nelkie17:10.5Ogemaw Heights175.5
12Ryan Magley17:10.6Stevensville Lakeshore175.5
10Benjamin Raphelson17:10.7Bloomfield Hills Lahser (merged with Andover 2015)175.4
11Patrick Earl17:10.7GR_Catholic Central175.4
12Richard Vogelzang17:12.2Holland Christian174.9
12Frank Gilbert17:12.5Corunna174.8
12Paul Deimling17:13.2Bloomfield Hills Lahser (merged with Andover 2015)174.6
12John Czoykowski17:13.7Harper Woods Notre Dame (CLOSED 2005)174.4
12Aaron Cromar17:14.7Mt. Pleasant174.1
11Maher Farah17:15.4Flint Powers Catholic173.9
11Cody Chupp17:15.9Big Rapids173.7
11Drew Stuart17:16.2Stevensville Lakeshore173.6
10Ryan Boluyt17:16.3Dexter173.6
9Tony Nalli17:16.9Dexter173.4
11Andrew Porinsky17:16.9Dexter173.4
12Donovan Irish17:18.1Petoskey173.0
10Jack VanTreese17:20.6Petoskey172.1
12Justin Barts17:20.8Richland Gull Lake172.1
11Ben Piercy17:21.1Richland Gull Lake172.0
11Michael Brandell17:21.3Haslett171.9
11Thomas Delucia17:21.9Trenton171.7
10Matt Wilson17:22.4Petoskey171.5
11Zach Wooledge17:22.5East Lansing171.5
10Michael Pete17:26.0Allegan170.3
12Tim Black17:26.5Madison Heights Lamphere170.2
11Adam Putnam17:26.6East Lansing170.1
12Jeffrey Fujioka17:26.7Madison Heights Lamphere170.1
11Scott Freeman17:27.1Muskegon Orchard View170.0
12Michael Barton17:27.7Birmingham Seaholm169.8
11Andrew Hall17:28.0Fremont169.7
11Joshua DeBruyn17:28.4Comstock169.5
12Kevin LaBeau17:28.9Madison Heights Lamphere169.4
12Mike Snowden17:29.2Sparta169.3
11Josh Williams17:29.9Eaton Rapids169.0
11Cyle Tompkins17:30.0Richland Gull Lake169.0
11Brett Soltys17:30.6Redford Thurston168.8
11Joe Skripka17:30.9Sparta168.7
12Craig Bigger17:31.2Cadillac168.6
9David Thalman17:31.8Richland Gull Lake168.4
11Adam Gluski17:32.9Grosse Ile168.0
11Tommy Wielichowski17:33.8Fenton167.7
10Matthew Rose17:34.3Bloomfield Hills Lahser (merged with Andover 2015)167.6
12Russell Venier17:35.2Monroe Jefferson167.3
12Dan DeRivera17:35.7Sparta167.1
12Charlie Kinney17:35.8Haslett167.1
10Kevin Brown17:37.9Oxford166.4
12Matt Wiersma17:38.7Orchard Lake St. Mary’s166.1
9Corey Thelen17:40.1Lake Odessa Lakewood165.6
11Ross Mason17:41.3Carleton Airport165.2
12Oussama Founas17:41.7Bloomfield Hills Andover (merged with Lahser 2015)165.1
12Blake Boehm17:43.1Stevensville Lakeshore164.6
12Mike Rensel17:43.5Petoskey164.5
10Adam Shields17:44.4Grosse Ile164.2
11Tom Bowman17:44.9Stevensville Lakeshore164.0
10Dana Wilson17:45.5Richland Gull Lake163.8
12Josh King17:46.3Ypsilanti Lincoln163.6
10Nolan Walter17:46.4Oxford163.5
11Harley Rohloff17:47.0Grosse Ile163.3
10Jeff Schappa17:47.5Cadillac163.2
12Paul Mines17:48.0Beverly Hills Groves163.0
11Joshua Bilsborrow17:48.3Coldwater162.9
9John Hayes17:48.6East Grand Rapids162.8
10Steve Cole17:49.1East Grand Rapids162.6
12Chris Bawden17:49.2East Lansing162.6
9Nick Bouldin17:49.4Haslett162.5
12Dustin Mier17:49.4Madison Heights Lamphere162.5
12Brad Colley17:49.5Ionia162.5
9Jeffrey Standfest17:49.8St. Clair162.4
11David Taylor17:50.8Sturgis162.1
9Tim Nance17:51.6Richland Gull Lake161.8
9Derek Moore17:51.9Haslett161.7
9Zach Kurek17:51.9Sparta161.7
11Ryan Grasmeyer17:52.1GR_Christian161.6
11Grant Gluski17:53.2Grosse Ile161.3
8Patrick Hall17:53.6Sturgis161.1
11Jack DaSilva17:53.8Tecumseh161.1
11Andrew Giguere17:54.0East Grand Rapids161.0
12Justin Daining17:55.0GR_Christian160.7
12Joe Francisco17:55.9Ionia160.4
10William Ellis17:55.9St. Clair160.4
10Adam Klingel17:56.2Fremont160.3
11Scott Uhlik17:56.4Carleton Airport160.2
9Matthew Willing17:57.9Flint Powers Catholic159.7
10David Mincel17:59.3Dearborn Divine Child159.2
11Max Melstrom18:00.9Cadillac158.7
9Mike Little18:00.9Dexter158.7
10Sean Smith18:01.6Cadillac158.5
12David Dehaan18:02.1GR_Christian158.3
9Kyle Williams18:02.2Cadillac158.3
12Josh Cole18:03.1Wayland Union158.0
9Nick Battista18:03.3Orchard Lake St. Mary’s157.9
9Kenneth White18:03.3Oxford157.9
12Chris Pipitone18:05.4Dearborn Heights Crestwood157.2
12Dominic McLaughlin18:06.2Oxford156.9
12Frederick Stadelbauer18:08.8Harper Woods Notre Dame (CLOSED 2005)156.1
11Mike Haskell18:09.3Sparta155.9
12Jeremy Dow18:09.6Lake Odessa Lakewood155.8
9Andrew Kennedy18:10.5Bloomfield Hills Lahser (merged with Andover 2015)155.5
11Colin Springer18:10.9East Lansing155.4
11Steve Gaffigan18:11.2Lake Shore St. Clair Shores155.3
10John Littleton18:11.9East Grand Rapids155.0
11Keith Walter18:12.0Harper Woods Notre Dame (CLOSED 2005)155.0
12Jeffrey Haines18:12.6Harper Woods Notre Dame (CLOSED 2005)154.8
10Aaron Scott18:13.2GR_Christian154.6
12Robb Windham18:16.7Carleton Airport153.4
12Steven Halat18:18.6Orchard Lake St. Mary’s152.8
12John Pandoff18:18.7Grosse Ile152.8
10Charles McClure18:19.0Cranbrook Kingswood (Bloomfield Hills )152.7
10Cody Roderick18:22.1Cadillac151.6
11Andrew Youatt18:24.2Haslett150.9
12Rob Kuhtz18:26.7Ionia150.1
12Greg Ardisana18:26.9Farmington Hills Harrison (Closed June ’19)150.0
9Joe Foley18:27.7Flint Powers Catholic149.8
12Felix Neubauer18:28.1Ionia149.6
11Tony Shelton18:28.2Sparta149.6
12Matthew Neiman18:29.9St. Clair149.0
11Anthony Stein18:31.1Oxford148.6
12Chris Kirwin18:32.6Big Rapids148.1
12John Davis18:32.8Cranbrook Kingswood (Bloomfield Hills )148.1
10Mike LaDuke18:34.3Carleton Airport147.6
9Jay Leadley18:35.5Dexter147.2
12Ryan Gibson18:37.3Orchard Lake St. Mary’s146.6
12Nick Hollister18:38.8Carleton Airport146.1
10Brandon Carpenter18:43.7Lake Odessa Lakewood144.4
12Peter Adamo18:48.2Orchard Lake St. Mary’s142.9
8William Andert18:48.5Stevensville Lakeshore142.8
10Nathan Willis18:53.8Monroe Jefferson141.1
10Ernesto DeLaRosa18:58.7Petoskey139.4
11Jason Schuyler18:58.8Richland Gull Lake139.4
12Josh Singleton19:06.7Sturgis136.8
8Ben Newcomer19:06.9Stevensville Lakeshore136.7
9Joe Hawkinson19:07.2Harper Woods Notre Dame (CLOSED 2005)136.6
12Nathan Harvey19:12.2Corunna134.9
10Matthew Bostwick19:14.9Corunna134.0
10Jordan Nousain19:15.7Cranbrook Kingswood (Bloomfield Hills )133.8
9Christopher Wieczorek19:20.1Ionia132.3
12George Lostracco19:21.5Corunna131.8
10William Petterson19:28.9Madison Heights Lamphere129.4
11Greg Goodman19:35.1Cranbrook Kingswood (Bloomfield Hills )127.3
12James Petras19:48.1Grosse Ile123.0
9Ben Meek19:49.3Sturgis122.6
11Andres Ballines19:57.5Sturgis119.8
11Tom Brandon19:57.6Madison Heights Lamphere119.8
9Tim Murray20:10.4Sturgis115.5
10Dan Ludwick20:11.5Monroe Jefferson115.2
10Jon Holton20:11.9Monroe Jefferson115.0
10Patrick Hamill20:13.9Orchard Lake St. Mary’s114.4
11Kevin Belen20:33.0Harper Woods Notre Dame (CLOSED 2005)108.0

Uncategorized

2001 Ratings: D1 Boys State

Adjustment: -4

GradeNameTimeTeamRating
11Tim Moore15:11.3Novi217.6
11Jake Hammerle15:35.6Woodhaven-Brownstown209.5
11Justin Zanotti15:41.5Macomb L’Anse Creuse North207.5
11Matthew French15:42.7Howell207.1
11John Krawiec15:47.5Detroit Catholic Central205.5
11Justin Hajduk15:49.5Salem204.8
11Nicholas Gillett15:50.6Troy204.5
11Dan Murray15:53.0Brother Rice203.7
11Lance Vanderberg15:54.7Muskegon Mona Shores203.1
9David Lucas15:56.6Detroit Catholic Central202.5
11Chris Catton15:57.1Grand Blanc202.3
11Corey Nowitzke15:57.8Monroe202.1
12Jason Schoener15:58.2Grand Blanc201.9
11Troy Terry15:58.4Utica Eisenhower201.9
11Dana Irrer15:59.2Okemos201.6
11Nick Kopczyk15:59.7Highland-Milford201.4
11Andrew Thorson16:00.5Grand Ledge201.2
10Kevin Gienapp16:01.1Brighton201.0
11Kevin Naughton16:02.9Walled Lake Western200.4
10Adam Craig16:03.1White Lake Lakeland200.3
10Dustin Voss16:04.8Saline199.7
11Michael Colt16:06.2Lake Orion199.3
11James Naughton16:09.3Ann Arbor Pioneer198.2
9James Anai16:09.4Grand Ledge198.2
9Tad Hulst16:10.5Zeeland (split to East/West)197.8
10Tim Marshall16:12.3Jackson197.2
11William Chapman16:13.5Livonia Churchill196.8
11Brian Theut16:13.9White Lake Lakeland196.7
11Ryan Sucharski16:14.5Macomb Dakota196.5
10Chris Welch16:15.1White Lake Lakeland196.3
10Pat Miller16:15.3Highland-Milford196.2
11Greg Haapala16:16.1Detroit U-D Jesuit196.0
11Ryan Gall16:18.0Livonia Churchill195.3
10Andrew Manning16:18.8Traverse City Central195.1
11Matt Johnson16:21.7Temperance Bedford194.1
11Mick Tiffany16:22.0Traverse City Central194.0
9Tim Kenny16:22.0TC West (Traverse City)194.0
10Kevin Coch16:23.9East Kentwood193.4
12Matthew Reed16:24.6Fraser193.1
11Patrick Dantzer16:25.0Grosse Pointe South193.0
10Mark Sitko16:26.1Clarkston192.6
9Neal Naughton16:28.6Walled Lake Western191.8
9Erickson James16:29.7Belleville191.4
12Joel Conn16:30.4Grand Blanc191.2
11Tyson Warner16:30.5Portage Northern191.2
11Kyle Jekot16:30.8Detroit Catholic Central191.1
9Bruce LaFrance16:30.9Warren Mott191.0
9Tim Kaijala16:31.0Muskegon Mona Shores191.0
10Alex Wood16:31.0TC West (Traverse City)191.0
9David Brown16:31.0Port Huron Northern191.0
11Dan Johnson16:31.2TC West (Traverse City)190.9
10Chris Beach16:31.6Portage Northern190.8
11Andrew Lapham16:31.9South Lyon190.7
11Andrew Rittenhouse16:32.1GR_Union190.6
9Kyle Mena16:32.6Portage Northern190.5
11Andy Pitchford16:32.9Portage Central190.4
10Eric Huffman16:33.1Swartz Creek190.3
9Adam Koepfer16:33.9Temperance Bedford190.0
11Logan Schultz16:34.1Livonia Churchill190.0
10Jared Elmore16:34.2Clarkston189.9
9Ryan Cooper16:34.3Portage Northern189.9
11Nicholas Liversedge16:34.3FHC GR_Forest Hills Central189.9
11Brian Lee16:34.5South Lyon189.8
11Andy Harvey16:35.7Ann Arbor Pioneer189.4
10Jeff Draggich16:36.4Sterling Heights189.2
10Cam Ross16:36.4Traverse City Central189.2
11Kris Kammsky16:37.2Howell188.9
11Justin Dew16:37.5Lake Orion188.8
10Tim Copacia16:37.8Utica Eisenhower188.7
10Mohamed Sheikh16:38.0GR_Union188.7
9Kyle Harris16:38.3Highland-Milford188.6
11Jeff Weber16:39.5Grandville188.2
8Steve Czarnecki16:40.3Rochester Adams187.9
11Tyler VanAcker16:40.3Highland-Milford187.9
10Matt Immink16:40.4Holland187.9
10Jim Kutches16:40.5Muskegon Mona Shores187.8
10Jason Arini16:40.9Sterling Heights187.7
11Phil DeCoook16:41.9Troy Athens187.4
8William Peterson16:42.7Lake Orion187.1
9Chris Scott16:42.7TC West (Traverse City)187.1
11Kevin Dorn16:43.2Rockford186.9
11Ian Patterson16:43.5Rochester Adams186.8
12Pat Pruitt16:43.5Canton186.8
8John Black16:44.1Brother Rice186.6
11Aaron Lanning16:44.6Canton186.5
10Christopher Vraniak16:45.7Salem186.1
10Chad Anastasoff16:45.8Temperance Bedford186.1
9Neil Atzinger16:46.2Saline185.9
11Ryan Rys16:47.3White Lake Lakeland185.6
11Jarred Spalsbury16:47.9Grand Ledge185.4
10Matt Plaska16:48.4Zeeland (split to East/West)185.2
10Eric Graf16:48.5Rockford185.2
11Adam Roach16:48.6Port Huron185.1
10Alex Fritz16:50.0Temperance Bedford184.7
10Jonathan Szostak16:51.0Grand Ledge184.3
11Jon Marshall16:51.1Detroit Catholic Central184.3
11Derek Dell16:51.2Holt184.3
11Matt Wish16:51.6Rockford184.1
11James Szopo16:52.3New Baltimore Anchor Bay183.9
10Christopher Haag16:53.8Warren DeLaSalle183.4
10James Leddy16:54.0Salem183.3
11Alex White16:54.7Brother Rice183.1
11Todd Foren16:55.0Novi183.0
11Jim Hagemann16:55.6Detroit U-D Jesuit182.8
11Dennis Hughes16:55.6Muskegon Reeths-Puffer182.8
10Zach Ryan16:55.7Saline182.8
11Andrew Gillett16:56.1Troy182.6
9Jason Hannawa16:58.0Brother Rice182.0
11Ryan Weaver16:58.4Saline181.9
11Skylar Gauss16:59.3TC West (Traverse City)181.6
10Steve Cullen16:59.4Fraser181.5
10Matt Gillespie16:59.5Livonia Stevenson181.5
8Mark Moore16:59.6Novi181.5
10Tim Kava16:59.9Novi181.4
11BJ Meyers17:00.2Rockford181.3
11Casey Barnes17:00.9Highland-Milford181.0
10Brian Doot17:01.2Detroit Catholic Central180.9
11Merhawi Tewoldemedhin17:01.6GR_Union180.8
9Kassem Hammoud17:03.1Dearborn Fordson180.3
11Stephan Wunderlich17:03.3Ann Arbor Huron180.2
11Chris Reimann17:03.6Rochester Adams180.1
9Eric Joseph17:04.1Novi180.0
11Paul Hanna17:04.7Temperance Bedford179.8
11Bryan Seymour17:04.9Detroit Catholic Central179.7
10Alex Grobbel17:05.4Utica Eisenhower179.5
11Mitch Erickson17:06.4Novi179.2
10Anthony McManus17:07.1Traverse City Central179.0
11Mike Schuchardt17:07.4Detroit U-D Jesuit178.9
11Adam Hostetler17:08.0Grand Blanc178.7
10Brandon Worlock17:08.4Adrian178.5
11Andrew Baalerud17:08.5Rochester Adams178.5
9David Hariston17:09.2Grand Ledge178.3
11Chris Kampe17:09.6Utica Eisenhower178.1
8Jeffery Hubbard17:09.8Ann Arbor Pioneer178.1
9Shawn Wilsher17:10.2Lake Orion177.9
11Tim Dubovsky17:10.9Flint Carman-Ainsworth177.7
9Chris Hammer17:11.4Troy Athens177.5
11Geoff Guthrie17:11.6Rockford177.5
11Steve Ball17:12.1Temperance Bedford177.3
10Ben Gannon17:12.7North Farmington177.1
11Joe Anderson17:13.1Ann Arbor Pioneer177.0
10Levi Yoder17:13.3GR_Union176.9
11Michael Carroll17:13.9Troy176.7
8John Hall17:14.4TC West (Traverse City)176.5
9Jeff Brooks17:14.6Flushing176.5
12Brandon McClellan17:14.7Canton176.4
11Nathan Chouinard17:14.8Traverse City Central176.4
9Clark Richter17:15.5Rockford176.2
12Casey Malony17:15.6Canton176.1
11Landon Medley17:15.9Saline176.0
11Adam Kovac17:17.2Grandville175.6
11Jim Kreft17:17.3TC West (Traverse City)175.6
10Soren Berg17:17.9Ann Arbor Pioneer175.4
10Matthew Rymond17:18.3Canton175.2
10Kevin Kane17:20.4Livonia Churchill174.5
8Harrison Beeby17:20.9Traverse City Central174.4
11Scott Moore17:21.0Rochester Adams174.3
12Steven Moore17:21.4Grand Ledge174.2
9Richard Kettles17:21.6Grand Ledge174.1
11Aaron Coury17:22.5Detroit U-D Jesuit173.8
11David Carvey17:22.6Portage Northern173.8
10Jason Young17:22.8Utica Eisenhower173.7
9Ryan McCarl17:23.2Muskegon Mona Shores173.6
10Nikhil Kawlra17:23.4Troy173.5
8Spencer Ornes17:24.0Novi173.3
11Jon Steinhoff17:24.7Grand Blanc173.1
9Mike Kurban17:24.9GR_Union173.0
10Chris Lieblang17:25.0Sterling Heights173.0
9Luke Chrusciel17:25.5Grandville172.8
11Chris Tibaudo17:25.6Grosse Pointe North172.8
9Julia Roberts17:25.8Wayne Memorial172.7
10Andrew Stewart17:27.3Troy172.2
11Matt Esper17:27.6Detroit Catholic Central172.1
9Ryan Gregory17:27.9Brother Rice172.0
9Keith Magic17:28.4Lake Orion171.9
11Mike Roth17:28.7Ann Arbor Pioneer171.8
10David Walline17:29.2Saline171.6
11Jon Hopkins17:30.4Rochester Adams171.2
10Corey Steimel17:31.5Grandville170.8
8Jimmy Partridge17:32.5Sterling Heights170.5
11James Stelzer17:33.1Utica Eisenhower170.3
11Jon Western17:34.3Canton169.9
9Alex Rickens17:34.4White Lake Lakeland169.9
10Bryan Mullins17:34.5Rochester169.8
9Mike Moreland17:34.7Rochester Adams169.8
10David Morgan17:34.7FHN GR_Forest Hills Northern169.8
11Levi Frasier17:35.3Muskegon Mona Shores169.6
11Steve Neshkoff17:35.5Temperance Bedford169.5
12Stephen Debien17:37.0Canton169.0
11Chris Johnson17:38.1Lake Orion168.6
9Dan Pinter17:39.9Saline168.0
12Chris Webster17:40.3Utica Ford167.9
11Daniel Zinser17:41.8Roseville167.4
10Andrew Visger17:43.4Grosse Pointe South166.9
10Grant Griffin17:44.5Grand Blanc166.5
9Chad Murray17:44.7Highland-Milford166.4
10Jonathan Paklain17:45.5Troy166.2
11Chase Howland17:46.6Portage Northern165.8
11Mandeep Sanghe17:50.1Livonia Churchill164.6
9Ryan Dahl17:53.0Lake Orion163.7
9Andrew Gabris17:53.0Muskegon Mona Shores163.7
8Jake Schaner17:54.3Muskegon Mona Shores163.2
9Dave Secord18:02.6Grosse Pointe North160.5
9Ryan Harper18:02.9Traverse City Central160.4
10Justin Brevick18:03.0Livonia Churchill160.3
8Takashi Gould18:05.7Ann Arbor Pioneer159.4
10Ryan Thome18:06.6Grandville159.1
9Scott Brunning18:06.7Troy Athens159.1
10Erik Meerschaert18:06.7Troy Athens159.1
8Alvin Moore18:07.1Troy Athens159.0
9Matt Crampton18:07.6Utica Eisenhower158.8
10Matt Scapini18:07.8Troy158.7
9Mike Bair18:08.4Brother Rice158.5
10Sam Klemet18:10.0Brother Rice158.0
9John Rolecki18:10.6Grand Blanc157.8
9Dominic Fano18:11.8Sterling Heights157.4
9Dan Morris18:13.6GR_Union156.8
10Duane Casbar18:13.9Sterling Heights156.7
9Kevin Olson18:17.9Portage Northern155.4
11Dave Mazur18:20.8Detroit U-D Jesuit154.4
11Robert Hanrahan18:23.9Grosse Pointe South153.4
10Robert Porter18:25.7Grosse Pointe South152.8
9Jon Maten18:26.3Detroit U-D Jesuit152.6
9Tom Szczesny18:27.7Detroit U-D Jesuit152.1
11Jean Harris18:30.0Livonia Churchill151.3
11Tim Lewis18:34.4Grandville149.9
9Seth Weener18:34.4Grandville149.9
11Daniel Safronoff18:37.8Troy Athens148.7
11Dan Fulmer18:39.3Sterling Heights148.2
10Eric Fadie18:43.4White Lake Lakeland146.9
11Alex Mackenzie18:53.0Grosse Pointe South143.7
11Matt Griffen18:55.1Troy Athens143.0
9Josh Paar18:56.7White Lake Lakeland142.4
9Bryan Mackenzie19:02.3Grosse Pointe South140.6
9Matt Geerling19:06.0GR_Union139.3
10Mike Liang19:07.0Grosse Pointe South139.0
10Dan Boozer20:32.7Rockford110.4
9Dan DeRusha22:18.2Highland-Milford75.3